Index of /20260417/WXO-DD/model_gdps/15km/00/084
Name Last modified Size Description
Parent Directory -
20260417T00Z_MSC_GDPS_AbsoluteVorticity_IsbL-0200_LatLon0.15_PT084H.grib2 2026-04-17 04:19 1.2M
20260417T00Z_MSC_GDPS_AbsoluteVorticity_IsbL-0250_LatLon0.15_PT084H.grib2 2026-04-17 04:19 1.6M
20260417T00Z_MSC_GDPS_AbsoluteVorticity_IsbL-0500_LatLon0.15_PT084H.grib2 2026-04-17 04:19 1.2M
20260417T00Z_MSC_GDPS_AbsoluteVorticity_IsbL-0700_LatLon0.15_PT084H.grib2 2026-04-17 04:19 1.6M
20260417T00Z_MSC_GDPS_AbsoluteVorticity_IsbL-0850_LatLon0.15_PT084H.grib2 2026-04-17 04:19 1.6M
20260417T00Z_MSC_GDPS_AirTemp-Max_AGL-2m_LatLon0.15_PT084H.grib2 2026-04-17 04:19 743K
20260417T00Z_MSC_GDPS_AirTemp-Min_AGL-2m_LatLon0.15_PT084H.grib2 2026-04-17 04:19 786K
20260417T00Z_MSC_GDPS_AirTemp_AGL-120m_LatLon0.15_PT084H.grib2 2026-04-17 04:19 906K
20260417T00Z_MSC_GDPS_AirTemp_AGL-2m_LatLon0.15_PT084H.grib2 2026-04-17 04:19 1.0M
20260417T00Z_MSC_GDPS_AirTemp_AGL-40m_LatLon0.15_PT084H.grib2 2026-04-17 04:19 926K
20260417T00Z_MSC_GDPS_AirTemp_AGL-80m_LatLon0.15_PT084H.grib2 2026-04-17 04:19 915K
20260417T00Z_MSC_GDPS_AirTemp_IsbL-0001_LatLon0.15_PT084H.grib2 2026-04-17 04:19 703K
20260417T00Z_MSC_GDPS_AirTemp_IsbL-0005_LatLon0.15_PT084H.grib2 2026-04-17 04:19 691K
20260417T00Z_MSC_GDPS_AirTemp_IsbL-0010_LatLon0.15_PT084H.grib2 2026-04-17 04:19 760K
20260417T00Z_MSC_GDPS_AirTemp_IsbL-0020_LatLon0.15_PT084H.grib2 2026-04-17 04:19 702K
20260417T00Z_MSC_GDPS_AirTemp_IsbL-0030_LatLon0.15_PT084H.grib2 2026-04-17 04:19 755K
20260417T00Z_MSC_GDPS_AirTemp_IsbL-0050_LatLon0.15_PT084H.grib2 2026-04-17 04:19 820K
20260417T00Z_MSC_GDPS_AirTemp_IsbL-0100_LatLon0.15_PT084H.grib2 2026-04-17 04:19 953K
20260417T00Z_MSC_GDPS_AirTemp_IsbL-0150_LatLon0.15_PT084H.grib2 2026-04-17 04:19 1.0M
20260417T00Z_MSC_GDPS_AirTemp_IsbL-0175_LatLon0.15_PT084H.grib2 2026-04-17 04:19 966K
20260417T00Z_MSC_GDPS_AirTemp_IsbL-0200_LatLon0.15_PT084H.grib2 2026-04-17 04:19 1.0M
20260417T00Z_MSC_GDPS_AirTemp_IsbL-0225_LatLon0.15_PT084H.grib2 2026-04-17 04:19 1.0M
20260417T00Z_MSC_GDPS_AirTemp_IsbL-0250_LatLon0.15_PT084H.grib2 2026-04-17 04:19 1.0M
20260417T00Z_MSC_GDPS_AirTemp_IsbL-0275_LatLon0.15_PT084H.grib2 2026-04-17 04:19 1.0M
20260417T00Z_MSC_GDPS_AirTemp_IsbL-0300_LatLon0.15_PT084H.grib2 2026-04-17 04:19 1.0M
20260417T00Z_MSC_GDPS_AirTemp_IsbL-0350_LatLon0.15_PT084H.grib2 2026-04-17 04:19 931K
20260417T00Z_MSC_GDPS_AirTemp_IsbL-0400_LatLon0.15_PT084H.grib2 2026-04-17 04:19 944K
20260417T00Z_MSC_GDPS_AirTemp_IsbL-0450_LatLon0.15_PT084H.grib2 2026-04-17 04:19 968K
20260417T00Z_MSC_GDPS_AirTemp_IsbL-0500_LatLon0.15_PT084H.grib2 2026-04-17 04:19 1.0M
20260417T00Z_MSC_GDPS_AirTemp_IsbL-0550_LatLon0.15_PT084H.grib2 2026-04-17 04:19 1.0M
20260417T00Z_MSC_GDPS_AirTemp_IsbL-0600_LatLon0.15_PT084H.grib2 2026-04-17 04:19 903K
20260417T00Z_MSC_GDPS_AirTemp_IsbL-0650_LatLon0.15_PT084H.grib2 2026-04-17 04:19 931K
20260417T00Z_MSC_GDPS_AirTemp_IsbL-0700_LatLon0.15_PT084H.grib2 2026-04-17 04:19 962K
20260417T00Z_MSC_GDPS_AirTemp_IsbL-0750_LatLon0.15_PT084H.grib2 2026-04-17 04:19 1.0M
20260417T00Z_MSC_GDPS_AirTemp_IsbL-0800_LatLon0.15_PT084H.grib2 2026-04-17 04:19 1.1M
20260417T00Z_MSC_GDPS_AirTemp_IsbL-0850_LatLon0.15_PT084H.grib2 2026-04-17 04:19 1.1M
20260417T00Z_MSC_GDPS_AirTemp_IsbL-0875_LatLon0.15_PT084H.grib2 2026-04-17 04:19 1.2M
20260417T00Z_MSC_GDPS_AirTemp_IsbL-0900_LatLon0.15_PT084H.grib2 2026-04-17 04:19 1.1M
20260417T00Z_MSC_GDPS_AirTemp_IsbL-0925_LatLon0.15_PT084H.grib2 2026-04-17 04:19 1.1M
20260417T00Z_MSC_GDPS_AirTemp_IsbL-0950_LatLon0.15_PT084H.grib2 2026-04-17 04:19 1.1M
20260417T00Z_MSC_GDPS_AirTemp_IsbL-0970_LatLon0.15_PT084H.grib2 2026-04-17 04:19 1.1M
20260417T00Z_MSC_GDPS_AirTemp_IsbL-0985_LatLon0.15_PT084H.grib2 2026-04-17 04:19 1.1M
20260417T00Z_MSC_GDPS_AirTemp_IsbL-1000_LatLon0.15_PT084H.grib2 2026-04-17 04:19 1.1M
20260417T00Z_MSC_GDPS_AirTemp_IsbL-1015_LatLon0.15_PT084H.grib2 2026-04-17 04:19 1.1M
20260417T00Z_MSC_GDPS_Albedo_Sfc_LatLon0.15_PT084H.grib2 2026-04-17 04:19 244K
20260417T00Z_MSC_GDPS_CAPE_Sfc_LatLon0.15_PT084H.grib2 2026-04-17 04:19 3.7M
20260417T00Z_MSC_GDPS_CIN_Sfc_LatLon0.15_PT084H.grib2 2026-04-17 04:19 2.8M
20260417T00Z_MSC_GDPS_CloudWater_EAtm_LatLon0.15_PT084H.grib2 2026-04-17 04:19 533K
20260417T00Z_MSC_GDPS_ConvectivePrecip-Accum_Sfc_LatLon0.15_PT084H.grib2 2026-04-17 04:19 3.2M
20260417T00Z_MSC_GDPS_DewPointDepression_AGL-2m_LatLon0.15_PT084H.grib2 2026-04-17 04:19 746K
20260417T00Z_MSC_GDPS_DewPointDepression_IsbL-0010_LatLon0.15_PT084H.grib2 2026-04-17 04:19 6.9K
20260417T00Z_MSC_GDPS_DewPointDepression_IsbL-0020_LatLon0.15_PT084H.grib2 2026-04-17 04:19 81K
20260417T00Z_MSC_GDPS_DewPointDepression_IsbL-0030_LatLon0.15_PT084H.grib2 2026-04-17 04:19 69K
20260417T00Z_MSC_GDPS_DewPointDepression_IsbL-0050_LatLon0.15_PT084H.grib2 2026-04-17 04:19 358K
20260417T00Z_MSC_GDPS_DewPointDepression_IsbL-0100_LatLon0.15_PT084H.grib2 2026-04-17 04:19 387K
20260417T00Z_MSC_GDPS_DewPointDepression_IsbL-0150_LatLon0.15_PT084H.grib2 2026-04-17 04:19 466K
20260417T00Z_MSC_GDPS_DewPointDepression_IsbL-0175_LatLon0.15_PT084H.grib2 2026-04-17 04:19 549K
20260417T00Z_MSC_GDPS_DewPointDepression_IsbL-0200_LatLon0.15_PT084H.grib2 2026-04-17 04:19 632K
20260417T00Z_MSC_GDPS_DewPointDepression_IsbL-0225_LatLon0.15_PT084H.grib2 2026-04-17 04:19 752K
20260417T00Z_MSC_GDPS_DewPointDepression_IsbL-0250_LatLon0.15_PT084H.grib2 2026-04-17 04:19 856K
20260417T00Z_MSC_GDPS_DewPointDepression_IsbL-0275_LatLon0.15_PT084H.grib2 2026-04-17 04:19 884K
20260417T00Z_MSC_GDPS_DewPointDepression_IsbL-0300_LatLon0.15_PT084H.grib2 2026-04-17 04:19 927K
20260417T00Z_MSC_GDPS_DewPointDepression_IsbL-0350_LatLon0.15_PT084H.grib2 2026-04-17 04:19 959K
20260417T00Z_MSC_GDPS_DewPointDepression_IsbL-0400_LatLon0.15_PT084H.grib2 2026-04-17 04:19 1.0M
20260417T00Z_MSC_GDPS_DewPointDepression_IsbL-0450_LatLon0.15_PT084H.grib2 2026-04-17 04:19 1.0M
20260417T00Z_MSC_GDPS_DewPointDepression_IsbL-0500_LatLon0.15_PT084H.grib2 2026-04-17 04:19 1.0M
20260417T00Z_MSC_GDPS_DewPointDepression_IsbL-0550_LatLon0.15_PT084H.grib2 2026-04-17 04:19 1.1M
20260417T00Z_MSC_GDPS_DewPointDepression_IsbL-0600_LatLon0.15_PT084H.grib2 2026-04-17 04:19 1.1M
20260417T00Z_MSC_GDPS_DewPointDepression_IsbL-0650_LatLon0.15_PT084H.grib2 2026-04-17 04:19 1.1M
20260417T00Z_MSC_GDPS_DewPointDepression_IsbL-0700_LatLon0.15_PT084H.grib2 2026-04-17 04:19 1.1M
20260417T00Z_MSC_GDPS_DewPointDepression_IsbL-0750_LatLon0.15_PT084H.grib2 2026-04-17 04:19 1.1M
20260417T00Z_MSC_GDPS_DewPointDepression_IsbL-0800_LatLon0.15_PT084H.grib2 2026-04-17 04:19 1.2M
20260417T00Z_MSC_GDPS_DewPointDepression_IsbL-0850_LatLon0.15_PT084H.grib2 2026-04-17 04:19 1.1M
20260417T00Z_MSC_GDPS_DewPointDepression_IsbL-0875_LatLon0.15_PT084H.grib2 2026-04-17 04:19 1.1M
20260417T00Z_MSC_GDPS_DewPointDepression_IsbL-0900_LatLon0.15_PT084H.grib2 2026-04-17 04:19 1.1M
20260417T00Z_MSC_GDPS_DewPointDepression_IsbL-0925_LatLon0.15_PT084H.grib2 2026-04-17 04:19 1.0M
20260417T00Z_MSC_GDPS_DewPointDepression_IsbL-0950_LatLon0.15_PT084H.grib2 2026-04-17 04:19 1.0M
20260417T00Z_MSC_GDPS_DewPointDepression_IsbL-0970_LatLon0.15_PT084H.grib2 2026-04-17 04:19 1.0M
20260417T00Z_MSC_GDPS_DewPointDepression_IsbL-0985_LatLon0.15_PT084H.grib2 2026-04-17 04:19 1.0M
20260417T00Z_MSC_GDPS_DewPointDepression_IsbL-1000_LatLon0.15_PT084H.grib2 2026-04-17 04:19 963K
20260417T00Z_MSC_GDPS_DewPointDepression_IsbL-1015_LatLon0.15_PT084H.grib2 2026-04-17 04:19 895K
20260417T00Z_MSC_GDPS_DewPoint_AGL-2m_LatLon0.15_PT084H.grib2 2026-04-17 04:19 613K
20260417T00Z_MSC_GDPS_DownwardLongwaveRadiationFlux-Accum_Sfc_LatLon0.15_PT084H.grib2 2026-04-17 04:19 691K
20260417T00Z_MSC_GDPS_DownwardShortwaveRadiationFlux-Accum_NTAtm_LatLon0.15_PT084H.grib2 2026-04-17 04:19 293K
20260417T00Z_MSC_GDPS_DownwardShortwaveRadiationFlux-Accum_Sfc_LatLon0.15_PT084H.grib2 2026-04-17 04:19 921K
20260417T00Z_MSC_GDPS_FreezingRain-Accum12h_Sfc_LatLon0.15_PT084H.grib2 2026-04-17 04:19 73K
20260417T00Z_MSC_GDPS_FreezingRain-Accum1h_Sfc_LatLon0.15_PT084H.grib2 2026-04-17 04:19 41K
20260417T00Z_MSC_GDPS_FreezingRain-Accum24h_Sfc_LatLon0.15_PT084H.grib2 2026-04-17 04:19 104K
20260417T00Z_MSC_GDPS_FreezingRain-Accum3h_Sfc_LatLon0.15_PT084H.grib2 2026-04-17 04:19 48K
20260417T00Z_MSC_GDPS_FreezingRain-Accum6h_Sfc_LatLon0.15_PT084H.grib2 2026-04-17 04:19 68K
20260417T00Z_MSC_GDPS_FreezingRain-Accum_Sfc_LatLon0.15_PT084H.grib2 2026-04-17 04:19 301K
20260417T00Z_MSC_GDPS_GeopotentialHeight_IsbL-0001_LatLon0.15_PT084H.grib2 2026-04-17 04:19 389K
20260417T00Z_MSC_GDPS_GeopotentialHeight_IsbL-0005_LatLon0.15_PT084H.grib2 2026-04-17 04:19 498K
20260417T00Z_MSC_GDPS_GeopotentialHeight_IsbL-0010_LatLon0.15_PT084H.grib2 2026-04-17 04:19 434K
20260417T00Z_MSC_GDPS_GeopotentialHeight_IsbL-0020_LatLon0.15_PT084H.grib2 2026-04-17 04:19 577K
20260417T00Z_MSC_GDPS_GeopotentialHeight_IsbL-0030_LatLon0.15_PT084H.grib2 2026-04-17 04:19 584K
20260417T00Z_MSC_GDPS_GeopotentialHeight_IsbL-0050_LatLon0.15_PT084H.grib2 2026-04-17 04:19 587K
20260417T00Z_MSC_GDPS_GeopotentialHeight_IsbL-0100_LatLon0.15_PT084H.grib2 2026-04-17 04:19 624K
20260417T00Z_MSC_GDPS_GeopotentialHeight_IsbL-0150_LatLon0.15_PT084H.grib2 2026-04-17 04:19 638K
20260417T00Z_MSC_GDPS_GeopotentialHeight_IsbL-0175_LatLon0.15_PT084H.grib2 2026-04-17 04:19 642K
20260417T00Z_MSC_GDPS_GeopotentialHeight_IsbL-0200_LatLon0.15_PT084H.grib2 2026-04-17 04:19 645K
20260417T00Z_MSC_GDPS_GeopotentialHeight_IsbL-0225_LatLon0.15_PT084H.grib2 2026-04-17 04:19 646K
20260417T00Z_MSC_GDPS_GeopotentialHeight_IsbL-0250_LatLon0.15_PT084H.grib2 2026-04-17 04:19 647K
20260417T00Z_MSC_GDPS_GeopotentialHeight_IsbL-0275_LatLon0.15_PT084H.grib2 2026-04-17 04:19 645K
20260417T00Z_MSC_GDPS_GeopotentialHeight_IsbL-0300_LatLon0.15_PT084H.grib2 2026-04-17 04:19 644K
20260417T00Z_MSC_GDPS_GeopotentialHeight_IsbL-0350_LatLon0.15_PT084H.grib2 2026-04-17 04:19 636K
20260417T00Z_MSC_GDPS_GeopotentialHeight_IsbL-0400_LatLon0.15_PT084H.grib2 2026-04-17 04:19 626K
20260417T00Z_MSC_GDPS_GeopotentialHeight_IsbL-0450_LatLon0.15_PT084H.grib2 2026-04-17 04:19 546K
20260417T00Z_MSC_GDPS_GeopotentialHeight_IsbL-0500_LatLon0.15_PT084H.grib2 2026-04-17 04:19 536K
20260417T00Z_MSC_GDPS_GeopotentialHeight_IsbL-0550_LatLon0.15_PT084H.grib2 2026-04-17 04:19 700K
20260417T00Z_MSC_GDPS_GeopotentialHeight_IsbL-0600_LatLon0.15_PT084H.grib2 2026-04-17 04:19 695K
20260417T00Z_MSC_GDPS_GeopotentialHeight_IsbL-0650_LatLon0.15_PT084H.grib2 2026-04-17 04:19 692K
20260417T00Z_MSC_GDPS_GeopotentialHeight_IsbL-0700_LatLon0.15_PT084H.grib2 2026-04-17 04:19 686K
20260417T00Z_MSC_GDPS_GeopotentialHeight_IsbL-0750_LatLon0.15_PT084H.grib2 2026-04-17 04:19 689K
20260417T00Z_MSC_GDPS_GeopotentialHeight_IsbL-0800_LatLon0.15_PT084H.grib2 2026-04-17 04:19 639K
20260417T00Z_MSC_GDPS_GeopotentialHeight_IsbL-0850_LatLon0.15_PT084H.grib2 2026-04-17 04:19 647K
20260417T00Z_MSC_GDPS_GeopotentialHeight_IsbL-0875_LatLon0.15_PT084H.grib2 2026-04-17 04:19 653K
20260417T00Z_MSC_GDPS_GeopotentialHeight_IsbL-0900_LatLon0.15_PT084H.grib2 2026-04-17 04:19 659K
20260417T00Z_MSC_GDPS_GeopotentialHeight_IsbL-0925_LatLon0.15_PT084H.grib2 2026-04-17 04:19 727K
20260417T00Z_MSC_GDPS_GeopotentialHeight_IsbL-0950_LatLon0.15_PT084H.grib2 2026-04-17 04:19 738K
20260417T00Z_MSC_GDPS_GeopotentialHeight_IsbL-0970_LatLon0.15_PT084H.grib2 2026-04-17 04:19 749K
20260417T00Z_MSC_GDPS_GeopotentialHeight_IsbL-0985_LatLon0.15_PT084H.grib2 2026-04-17 04:19 764K
20260417T00Z_MSC_GDPS_GeopotentialHeight_IsbL-1000_LatLon0.15_PT084H.grib2 2026-04-17 04:19 786K
20260417T00Z_MSC_GDPS_GeopotentialHeight_IsbL-1015_LatLon0.15_PT084H.grib2 2026-04-17 04:19 810K
20260417T00Z_MSC_GDPS_Humidex_Sfc_LatLon0.15_PT084H.grib2 2026-04-17 04:19 5.3M
20260417T00Z_MSC_GDPS_IcePellets-Accum12h_Sfc_LatLon0.15_PT084H.grib2 2026-04-17 04:19 30K
20260417T00Z_MSC_GDPS_IcePellets-Accum1h_Sfc_LatLon0.15_PT084H.grib2 2026-04-17 04:19 14K
20260417T00Z_MSC_GDPS_IcePellets-Accum24h_Sfc_LatLon0.15_PT084H.grib2 2026-04-17 04:19 52K
20260417T00Z_MSC_GDPS_IcePellets-Accum3h_Sfc_LatLon0.15_PT084H.grib2 2026-04-17 04:19 15K
20260417T00Z_MSC_GDPS_IcePellets-Accum6h_Sfc_LatLon0.15_PT084H.grib2 2026-04-17 04:19 22K
20260417T00Z_MSC_GDPS_IcePellets-Accum_Sfc_LatLon0.15_PT084H.grib2 2026-04-17 04:19 152K
20260417T00Z_MSC_GDPS_KIndex_Sfc_LatLon0.15_PT084H.grib2 2026-04-17 04:19 6.5M
20260417T00Z_MSC_GDPS_LatentHeatNetFlux_Sfc_LatLon0.15_PT084H.grib2 2026-04-17 04:19 544K
20260417T00Z_MSC_GDPS_LiftedIndex-MU-VT_IsbL-0500_LatLon0.15_PT084H.grib2 2026-04-17 04:19 5.4M
20260417T00Z_MSC_GDPS_NetLongwaveRadiationFlux-Accum_Sfc_LatLon0.15_PT084H.grib2 2026-04-17 04:19 1.0M
20260417T00Z_MSC_GDPS_NetShortwaveRadiationFlux-Accum_Sfc_LatLon0.15_PT084H.grib2 2026-04-17 04:19 914K
20260417T00Z_MSC_GDPS_O3MixingRatio_LatLon0.15_PT084H.grib2 2026-04-17 04:50 2.2M
20260417T00Z_MSC_GDPS_O3_EAtm_LatLon0.15_PT084H.grib2 2026-04-17 04:50 2.5M
20260417T00Z_MSC_GDPS_PlanetaryBoundaryLayerHeight_Sfc_LatLon0.15_PT084H.grib2 2026-04-17 04:19 2.5M
20260417T00Z_MSC_GDPS_Precip-Accum12h_Sfc_LatLon0.15_PT084H.grib2 2026-04-17 04:19 4.0M
20260417T00Z_MSC_GDPS_Precip-Accum1h_Sfc_LatLon0.15_PT084H.grib2 2026-04-17 04:19 3.2M
20260417T00Z_MSC_GDPS_Precip-Accum24h_Sfc_LatLon0.15_PT084H.grib2 2026-04-17 04:19 4.5M
20260417T00Z_MSC_GDPS_Precip-Accum3h_Sfc_LatLon0.15_PT084H.grib2 2026-04-17 04:19 3.5M
20260417T00Z_MSC_GDPS_Precip-Accum6h_Sfc_LatLon0.15_PT084H.grib2 2026-04-17 04:19 3.8M
20260417T00Z_MSC_GDPS_Precip-Accum_Sfc_LatLon0.15_PT084H.grib2 2026-04-17 04:19 5.3M
20260417T00Z_MSC_GDPS_PrecipRate_Sfc_LatLon0.15_PT084H.grib2 2026-04-17 04:19 3.0M
20260417T00Z_MSC_GDPS_PrecipType-Instant_Sfc_LatLon0.15_PT084H.grib2 2026-04-17 04:19 1.6M
20260417T00Z_MSC_GDPS_Pressure_MSL_LatLon0.15_PT084H.grib2 2026-04-17 04:19 720K
20260417T00Z_MSC_GDPS_Pressure_PVU-1.5_LatLon0.15_PT084H.grib2 2026-04-17 04:19 5.7M
20260417T00Z_MSC_GDPS_Pressure_PVU-1_LatLon0.15_PT084H.grib2 2026-04-17 04:19 6.0M
20260417T00Z_MSC_GDPS_Pressure_PVU-2_LatLon0.15_PT084H.grib2 2026-04-17 04:19 5.6M
20260417T00Z_MSC_GDPS_Pressure_Sfc_LatLon0.15_PT084H.grib2 2026-04-17 04:19 1.1M
20260417T00Z_MSC_GDPS_RadiativeTemp_Sfc_LatLon0.15_PT084H.grib2 2026-04-17 04:19 676K
20260417T00Z_MSC_GDPS_Rain-Accum12h_Sfc_LatLon0.15_PT084H.grib2 2026-04-17 04:19 2.6M
20260417T00Z_MSC_GDPS_Rain-Accum1h_Sfc_LatLon0.15_PT084H.grib2 2026-04-17 04:19 1.7M
20260417T00Z_MSC_GDPS_Rain-Accum24h_Sfc_LatLon0.15_PT084H.grib2 2026-04-17 04:19 3.1M
20260417T00Z_MSC_GDPS_Rain-Accum3h_Sfc_LatLon0.15_PT084H.grib2 2026-04-17 04:19 1.7M
20260417T00Z_MSC_GDPS_Rain-Accum6h_Sfc_LatLon0.15_PT084H.grib2 2026-04-17 04:19 2.4M
20260417T00Z_MSC_GDPS_Rain-Accum_Sfc_LatLon0.15_PT084H.grib2 2026-04-17 04:19 4.0M
20260417T00Z_MSC_GDPS_RelativeHumidity_AGL-2m_LatLon0.15_PT084H.grib2 2026-04-17 04:19 1.1M
20260417T00Z_MSC_GDPS_RelativeHumidity_IsbL-0010_LatLon0.15_PT084H.grib2 2026-04-17 04:19 238K
20260417T00Z_MSC_GDPS_RelativeHumidity_IsbL-0020_LatLon0.15_PT084H.grib2 2026-04-17 04:19 373K
20260417T00Z_MSC_GDPS_RelativeHumidity_IsbL-0030_LatLon0.15_PT084H.grib2 2026-04-17 04:19 421K
20260417T00Z_MSC_GDPS_RelativeHumidity_IsbL-0050_LatLon0.15_PT084H.grib2 2026-04-17 04:19 414K
20260417T00Z_MSC_GDPS_RelativeHumidity_IsbL-0100_LatLon0.15_PT084H.grib2 2026-04-17 04:19 342K
20260417T00Z_MSC_GDPS_RelativeHumidity_IsbL-0150_LatLon0.15_PT084H.grib2 2026-04-17 04:19 656K
20260417T00Z_MSC_GDPS_RelativeHumidity_IsbL-0175_LatLon0.15_PT084H.grib2 2026-04-17 04:19 792K
20260417T00Z_MSC_GDPS_RelativeHumidity_IsbL-0200_LatLon0.15_PT084H.grib2 2026-04-17 04:19 699K
20260417T00Z_MSC_GDPS_RelativeHumidity_IsbL-0225_LatLon0.15_PT084H.grib2 2026-04-17 04:19 780K
20260417T00Z_MSC_GDPS_RelativeHumidity_IsbL-0250_LatLon0.15_PT084H.grib2 2026-04-17 04:19 866K
20260417T00Z_MSC_GDPS_RelativeHumidity_IsbL-0275_LatLon0.15_PT084H.grib2 2026-04-17 04:19 892K
20260417T00Z_MSC_GDPS_RelativeHumidity_IsbL-0300_LatLon0.15_PT084H.grib2 2026-04-17 04:19 937K
20260417T00Z_MSC_GDPS_RelativeHumidity_IsbL-0350_LatLon0.15_PT084H.grib2 2026-04-17 04:19 955K
20260417T00Z_MSC_GDPS_RelativeHumidity_IsbL-0400_LatLon0.15_PT084H.grib2 2026-04-17 04:19 1.0M
20260417T00Z_MSC_GDPS_RelativeHumidity_IsbL-0450_LatLon0.15_PT084H.grib2 2026-04-17 04:19 1.0M
20260417T00Z_MSC_GDPS_RelativeHumidity_IsbL-0500_LatLon0.15_PT084H.grib2 2026-04-17 04:19 1.0M
20260417T00Z_MSC_GDPS_RelativeHumidity_IsbL-0550_LatLon0.15_PT084H.grib2 2026-04-17 04:19 1.0M
20260417T00Z_MSC_GDPS_RelativeHumidity_IsbL-0600_LatLon0.15_PT084H.grib2 2026-04-17 04:19 1.1M
20260417T00Z_MSC_GDPS_RelativeHumidity_IsbL-0650_LatLon0.15_PT084H.grib2 2026-04-17 04:19 1.1M
20260417T00Z_MSC_GDPS_RelativeHumidity_IsbL-0700_LatLon0.15_PT084H.grib2 2026-04-17 04:19 1.1M
20260417T00Z_MSC_GDPS_RelativeHumidity_IsbL-0750_LatLon0.15_PT084H.grib2 2026-04-17 04:19 1.2M
20260417T00Z_MSC_GDPS_RelativeHumidity_IsbL-0800_LatLon0.15_PT084H.grib2 2026-04-17 04:19 1.2M
20260417T00Z_MSC_GDPS_RelativeHumidity_IsbL-0850_LatLon0.15_PT084H.grib2 2026-04-17 04:19 1.3M
20260417T00Z_MSC_GDPS_RelativeHumidity_IsbL-0875_LatLon0.15_PT084H.grib2 2026-04-17 04:19 1.2M
20260417T00Z_MSC_GDPS_RelativeHumidity_IsbL-0900_LatLon0.15_PT084H.grib2 2026-04-17 04:19 1.2M
20260417T00Z_MSC_GDPS_RelativeHumidity_IsbL-0925_LatLon0.15_PT084H.grib2 2026-04-17 04:19 1.2M
20260417T00Z_MSC_GDPS_RelativeHumidity_IsbL-0950_LatLon0.15_PT084H.grib2 2026-04-17 04:19 1.2M
20260417T00Z_MSC_GDPS_RelativeHumidity_IsbL-0970_LatLon0.15_PT084H.grib2 2026-04-17 04:19 1.2M
20260417T00Z_MSC_GDPS_RelativeHumidity_IsbL-0985_LatLon0.15_PT084H.grib2 2026-04-17 04:19 1.1M
20260417T00Z_MSC_GDPS_RelativeHumidity_IsbL-1000_LatLon0.15_PT084H.grib2 2026-04-17 04:19 1.1M
20260417T00Z_MSC_GDPS_RelativeHumidity_IsbL-1015_LatLon0.15_PT084H.grib2 2026-04-17 04:19 1.0M
20260417T00Z_MSC_GDPS_RelativeVorticity_IsbL-0200_LatLon0.15_PT084H.grib2 2026-04-17 04:19 1.5M
20260417T00Z_MSC_GDPS_RelativeVorticity_IsbL-0250_LatLon0.15_PT084H.grib2 2026-04-17 04:19 1.6M
20260417T00Z_MSC_GDPS_RelativeVorticity_IsbL-0500_LatLon0.15_PT084H.grib2 2026-04-17 04:19 1.2M
20260417T00Z_MSC_GDPS_RelativeVorticity_IsbL-0700_LatLon0.15_PT084H.grib2 2026-04-17 04:19 1.6M
20260417T00Z_MSC_GDPS_RelativeVorticity_IsbL-0850_LatLon0.15_PT084H.grib2 2026-04-17 04:19 1.6M
20260417T00Z_MSC_GDPS_Runoff-Accum_Sfc_LatLon0.15_PT084H.grib2 2026-04-17 04:19 102K
20260417T00Z_MSC_GDPS_SensibleHeatNetFlux_Sfc_LatLon0.15_PT084H.grib2 2026-04-17 04:19 638K
20260417T00Z_MSC_GDPS_ShowalterIndex_IsbL-0500_LatLon0.15_PT084H.grib2 2026-04-17 04:19 6.2M
20260417T00Z_MSC_GDPS_Snow-Accum12h_Sfc_LatLon0.15_PT084H.grib2 2026-04-17 04:19 1.4M
20260417T00Z_MSC_GDPS_Snow-Accum1h_Sfc_LatLon0.15_PT084H.grib2 2026-04-17 04:19 1.2M
20260417T00Z_MSC_GDPS_Snow-Accum24h_Sfc_LatLon0.15_PT084H.grib2 2026-04-17 04:19 1.6M
20260417T00Z_MSC_GDPS_Snow-Accum3h_Sfc_LatLon0.15_PT084H.grib2 2026-04-17 04:19 1.2M
20260417T00Z_MSC_GDPS_Snow-Accum6h_Sfc_LatLon0.15_PT084H.grib2 2026-04-17 04:19 1.5M
20260417T00Z_MSC_GDPS_Snow-Accum_Sfc_LatLon0.15_PT084H.grib2 2026-04-17 04:19 2.0M
20260417T00Z_MSC_GDPS_SnowDensity_Sfc_LatLon0.15_PT084H.grib2 2026-04-17 04:19 271K
20260417T00Z_MSC_GDPS_SnowDepth_Sfc_LatLon0.15_PT084H.grib2 2026-04-17 04:19 1.8M
20260417T00Z_MSC_GDPS_SoilTemp_DBS-0to10cm_LatLon0.15_PT084H.grib2 2026-04-17 04:19 507K
20260417T00Z_MSC_GDPS_SoilTemp_Sfc_LatLon0.15_PT084H.grib2 2026-04-17 04:19 592K
20260417T00Z_MSC_GDPS_SoilVolumetricIceContent_Sfc_LatLon0.15_PT084H.grib2 2026-04-17 04:19 222K
20260417T00Z_MSC_GDPS_SoilVolumetricWaterContent_DBS-0to10cm_LatLon0.15_PT084H.grib2 2026-04-17 04:19 555K
20260417T00Z_MSC_GDPS_SoilVolumetricWaterContent_DBS-0to1cm_LatLon0.15_PT084H.grib2 2026-04-17 04:19 647K
20260417T00Z_MSC_GDPS_SpecificHumidity_AGL-120m_LatLon0.15_PT084H.grib2 2026-04-17 04:19 1.1M
20260417T00Z_MSC_GDPS_SpecificHumidity_AGL-2m_LatLon0.15_PT084H.grib2 2026-04-17 04:19 1.2M
20260417T00Z_MSC_GDPS_SpecificHumidity_AGL-40m_LatLon0.15_PT084H.grib2 2026-04-17 04:19 1.1M
20260417T00Z_MSC_GDPS_SpecificHumidity_AGL-80m_LatLon0.15_PT084H.grib2 2026-04-17 04:19 1.1M
20260417T00Z_MSC_GDPS_SpecificHumidity_IsbL-0001_LatLon0.15_PT084H.grib2 2026-04-17 04:19 1.2M
20260417T00Z_MSC_GDPS_SpecificHumidity_IsbL-0005_LatLon0.15_PT084H.grib2 2026-04-17 04:19 1.1M
20260417T00Z_MSC_GDPS_SpecificHumidity_IsbL-0010_LatLon0.15_PT084H.grib2 2026-04-17 04:19 1.3M
20260417T00Z_MSC_GDPS_SpecificHumidity_IsbL-0020_LatLon0.15_PT084H.grib2 2026-04-17 04:19 1.3M
20260417T00Z_MSC_GDPS_SpecificHumidity_IsbL-0030_LatLon0.15_PT084H.grib2 2026-04-17 04:19 1.3M
20260417T00Z_MSC_GDPS_SpecificHumidity_IsbL-0050_LatLon0.15_PT084H.grib2 2026-04-17 04:19 1.3M
20260417T00Z_MSC_GDPS_SpecificHumidity_IsbL-0100_LatLon0.15_PT084H.grib2 2026-04-17 04:19 1.3M
20260417T00Z_MSC_GDPS_SpecificHumidity_IsbL-0150_LatLon0.15_PT084H.grib2 2026-04-17 04:19 1.3M
20260417T00Z_MSC_GDPS_SpecificHumidity_IsbL-0175_LatLon0.15_PT084H.grib2 2026-04-17 04:19 1.3M
20260417T00Z_MSC_GDPS_SpecificHumidity_IsbL-0200_LatLon0.15_PT084H.grib2 2026-04-17 04:19 1.3M
20260417T00Z_MSC_GDPS_SpecificHumidity_IsbL-0225_LatLon0.15_PT084H.grib2 2026-04-17 04:19 1.3M
20260417T00Z_MSC_GDPS_SpecificHumidity_IsbL-0250_LatLon0.15_PT084H.grib2 2026-04-17 04:19 1.4M
20260417T00Z_MSC_GDPS_SpecificHumidity_IsbL-0275_LatLon0.15_PT084H.grib2 2026-04-17 04:19 1.3M
20260417T00Z_MSC_GDPS_SpecificHumidity_IsbL-0300_LatLon0.15_PT084H.grib2 2026-04-17 04:19 1.2M
20260417T00Z_MSC_GDPS_SpecificHumidity_IsbL-0350_LatLon0.15_PT084H.grib2 2026-04-17 04:19 1.2M
20260417T00Z_MSC_GDPS_SpecificHumidity_IsbL-0400_LatLon0.15_PT084H.grib2 2026-04-17 04:19 1.5M
20260417T00Z_MSC_GDPS_SpecificHumidity_IsbL-0450_LatLon0.15_PT084H.grib2 2026-04-17 04:19 1.6M
20260417T00Z_MSC_GDPS_SpecificHumidity_IsbL-0500_LatLon0.15_PT084H.grib2 2026-04-17 04:19 1.4M
20260417T00Z_MSC_GDPS_SpecificHumidity_IsbL-0550_LatLon0.15_PT084H.grib2 2026-04-17 04:19 1.6M
20260417T00Z_MSC_GDPS_SpecificHumidity_IsbL-0600_LatLon0.15_PT084H.grib2 2026-04-17 04:19 1.7M
20260417T00Z_MSC_GDPS_SpecificHumidity_IsbL-0650_LatLon0.15_PT084H.grib2 2026-04-17 04:19 1.5M
20260417T00Z_MSC_GDPS_SpecificHumidity_IsbL-0700_LatLon0.15_PT084H.grib2 2026-04-17 04:19 1.6M
20260417T00Z_MSC_GDPS_SpecificHumidity_IsbL-0750_LatLon0.15_PT084H.grib2 2026-04-17 04:19 1.7M
20260417T00Z_MSC_GDPS_SpecificHumidity_IsbL-0800_LatLon0.15_PT084H.grib2 2026-04-17 04:19 1.8M
20260417T00Z_MSC_GDPS_SpecificHumidity_IsbL-0850_LatLon0.15_PT084H.grib2 2026-04-17 04:19 1.9M
20260417T00Z_MSC_GDPS_SpecificHumidity_IsbL-0875_LatLon0.15_PT084H.grib2 2026-04-17 04:19 1.9M
20260417T00Z_MSC_GDPS_SpecificHumidity_IsbL-0900_LatLon0.15_PT084H.grib2 2026-04-17 04:19 1.6M
20260417T00Z_MSC_GDPS_SpecificHumidity_IsbL-0925_LatLon0.15_PT084H.grib2 2026-04-17 04:19 1.6M
20260417T00Z_MSC_GDPS_SpecificHumidity_IsbL-0950_LatLon0.15_PT084H.grib2 2026-04-17 04:19 1.5M
20260417T00Z_MSC_GDPS_SpecificHumidity_IsbL-0970_LatLon0.15_PT084H.grib2 2026-04-17 04:19 1.5M
20260417T00Z_MSC_GDPS_SpecificHumidity_IsbL-0985_LatLon0.15_PT084H.grib2 2026-04-17 04:19 1.5M
20260417T00Z_MSC_GDPS_SpecificHumidity_IsbL-1000_LatLon0.15_PT084H.grib2 2026-04-17 04:19 1.5M
20260417T00Z_MSC_GDPS_SpecificHumidity_IsbL-1015_LatLon0.15_PT084H.grib2 2026-04-17 04:19 1.4M
20260417T00Z_MSC_GDPS_SpecificHumidity_Sfc_LatLon0.15_PT084H.grib2 2026-04-17 04:19 670K
20260417T00Z_MSC_GDPS_Thickness_IsbL-0850to0700_LatLon0.15_PT084H.grib2 2026-04-17 04:19 471K
20260417T00Z_MSC_GDPS_Thickness_IsbL-1000to0500_LatLon0.15_PT084H.grib2 2026-04-17 04:19 377K
20260417T00Z_MSC_GDPS_Thickness_IsbL-1000to0850_LatLon0.15_PT084H.grib2 2026-04-17 04:19 490K
20260417T00Z_MSC_GDPS_TotalCloudCover_Sfc_LatLon0.15_PT084H.grib2 2026-04-17 04:19 823K
20260417T00Z_MSC_GDPS_TotalTotalsIndex_Sfc_LatLon0.15_PT084H.grib2 2026-04-17 04:19 6.2M
20260417T00Z_MSC_GDPS_UVIndex-ClearSky_Sfc_LatLon0.15_PT084H.grib2 2026-04-17 04:50 1.0M
20260417T00Z_MSC_GDPS_UVIndex_Sfc_LatLon0.15_PT084H.grib2 2026-04-17 04:50 1.4M
20260417T00Z_MSC_GDPS_UpwardLongwaveRadiationFlux_NTAtm_LatLon0.15_PT084H.grib2 2026-04-17 04:19 839K
20260417T00Z_MSC_GDPS_VerticalVelocity_IsbL-0200_LatLon0.15_PT084H.grib2 2026-04-17 04:19 1.2M
20260417T00Z_MSC_GDPS_VerticalVelocity_IsbL-0250_LatLon0.15_PT084H.grib2 2026-04-17 04:19 1.1M
20260417T00Z_MSC_GDPS_VerticalVelocity_IsbL-0500_LatLon0.15_PT084H.grib2 2026-04-17 04:19 1.0M
20260417T00Z_MSC_GDPS_VerticalVelocity_IsbL-0600_LatLon0.15_PT084H.grib2 2026-04-17 04:19 1.1M
20260417T00Z_MSC_GDPS_VerticalVelocity_IsbL-0700_LatLon0.15_PT084H.grib2 2026-04-17 04:19 1.1M
20260417T00Z_MSC_GDPS_VerticalVelocity_IsbL-0850_LatLon0.15_PT084H.grib2 2026-04-17 04:19 1.6M
20260417T00Z_MSC_GDPS_WindChill_Sfc_LatLon0.15_PT084H.grib2 2026-04-17 04:19 5.3M
20260417T00Z_MSC_GDPS_WindDir_AGL-10m_LatLon0.15_PT084H.grib2 2026-04-17 04:19 1.3M
20260417T00Z_MSC_GDPS_WindDir_AGL-120m_LatLon0.15_PT084H.grib2 2026-04-17 04:19 1.4M
20260417T00Z_MSC_GDPS_WindDir_AGL-40m_LatLon0.15_PT084H.grib2 2026-04-17 04:19 1.4M
20260417T00Z_MSC_GDPS_WindDir_AGL-80m_LatLon0.15_PT084H.grib2 2026-04-17 04:19 1.4M
20260417T00Z_MSC_GDPS_WindDir_IsbL-0001_LatLon0.15_PT084H.grib2 2026-04-17 04:19 632K
20260417T00Z_MSC_GDPS_WindDir_IsbL-0005_LatLon0.15_PT084H.grib2 2026-04-17 04:19 807K
20260417T00Z_MSC_GDPS_WindDir_IsbL-0010_LatLon0.15_PT084H.grib2 2026-04-17 04:19 867K
20260417T00Z_MSC_GDPS_WindDir_IsbL-0020_LatLon0.15_PT084H.grib2 2026-04-17 04:19 933K
20260417T00Z_MSC_GDPS_WindDir_IsbL-0030_LatLon0.15_PT084H.grib2 2026-04-17 04:19 917K
20260417T00Z_MSC_GDPS_WindDir_IsbL-0050_LatLon0.15_PT084H.grib2 2026-04-17 04:19 961K
20260417T00Z_MSC_GDPS_WindDir_IsbL-0100_LatLon0.15_PT084H.grib2 2026-04-17 04:19 1.0M
20260417T00Z_MSC_GDPS_WindDir_IsbL-0150_LatLon0.15_PT084H.grib2 2026-04-17 04:19 1.0M
20260417T00Z_MSC_GDPS_WindDir_IsbL-0175_LatLon0.15_PT084H.grib2 2026-04-17 04:19 1.1M
20260417T00Z_MSC_GDPS_WindDir_IsbL-0200_LatLon0.15_PT084H.grib2 2026-04-17 04:19 1.1M
20260417T00Z_MSC_GDPS_WindDir_IsbL-0225_LatLon0.15_PT084H.grib2 2026-04-17 04:19 1.1M
20260417T00Z_MSC_GDPS_WindDir_IsbL-0250_LatLon0.15_PT084H.grib2 2026-04-17 04:19 1.1M
20260417T00Z_MSC_GDPS_WindDir_IsbL-0275_LatLon0.15_PT084H.grib2 2026-04-17 04:19 1.2M
20260417T00Z_MSC_GDPS_WindDir_IsbL-0300_LatLon0.15_PT084H.grib2 2026-04-17 04:19 1.2M
20260417T00Z_MSC_GDPS_WindDir_IsbL-0350_LatLon0.15_PT084H.grib2 2026-04-17 04:19 1.2M
20260417T00Z_MSC_GDPS_WindDir_IsbL-0400_LatLon0.15_PT084H.grib2 2026-04-17 04:19 1.3M
20260417T00Z_MSC_GDPS_WindDir_IsbL-0450_LatLon0.15_PT084H.grib2 2026-04-17 04:19 1.3M
20260417T00Z_MSC_GDPS_WindDir_IsbL-0500_LatLon0.15_PT084H.grib2 2026-04-17 04:19 1.4M
20260417T00Z_MSC_GDPS_WindDir_IsbL-0550_LatLon0.15_PT084H.grib2 2026-04-17 04:19 1.4M
20260417T00Z_MSC_GDPS_WindDir_IsbL-0600_LatLon0.15_PT084H.grib2 2026-04-17 04:19 1.5M
20260417T00Z_MSC_GDPS_WindDir_IsbL-0650_LatLon0.15_PT084H.grib2 2026-04-17 04:19 1.5M
20260417T00Z_MSC_GDPS_WindDir_IsbL-0700_LatLon0.15_PT084H.grib2 2026-04-17 04:19 1.6M
20260417T00Z_MSC_GDPS_WindDir_IsbL-0750_LatLon0.15_PT084H.grib2 2026-04-17 04:19 1.7M
20260417T00Z_MSC_GDPS_WindDir_IsbL-0800_LatLon0.15_PT084H.grib2 2026-04-17 04:19 1.8M
20260417T00Z_MSC_GDPS_WindDir_IsbL-0850_LatLon0.15_PT084H.grib2 2026-04-17 04:19 1.9M
20260417T00Z_MSC_GDPS_WindDir_IsbL-0875_LatLon0.15_PT084H.grib2 2026-04-17 04:19 2.0M
20260417T00Z_MSC_GDPS_WindDir_IsbL-0900_LatLon0.15_PT084H.grib2 2026-04-17 04:19 2.0M
20260417T00Z_MSC_GDPS_WindDir_IsbL-0925_LatLon0.15_PT084H.grib2 2026-04-17 04:19 2.0M
20260417T00Z_MSC_GDPS_WindDir_IsbL-0950_LatLon0.15_PT084H.grib2 2026-04-17 04:19 2.0M
20260417T00Z_MSC_GDPS_WindDir_IsbL-0970_LatLon0.15_PT084H.grib2 2026-04-17 04:19 2.0M
20260417T00Z_MSC_GDPS_WindDir_IsbL-0985_LatLon0.15_PT084H.grib2 2026-04-17 04:19 2.0M
20260417T00Z_MSC_GDPS_WindDir_IsbL-1000_LatLon0.15_PT084H.grib2 2026-04-17 04:19 2.1M
20260417T00Z_MSC_GDPS_WindDir_IsbL-1015_LatLon0.15_PT084H.grib2 2026-04-17 04:19 2.0M
20260417T00Z_MSC_GDPS_WindGust-Max_AGL-10m_LatLon0.15_PT084H.grib2 2026-04-17 04:19 2.2M
20260417T00Z_MSC_GDPS_WindGust-Min_AGL-10m_LatLon0.15_PT084H.grib2 2026-04-17 04:19 2.2M
20260417T00Z_MSC_GDPS_WindGust_AGL-10m_LatLon0.15_PT084H.grib2 2026-04-17 04:19 2.2M
20260417T00Z_MSC_GDPS_WindSpeed_AGL-10m_LatLon0.15_PT084H.grib2 2026-04-17 04:19 1.1M
20260417T00Z_MSC_GDPS_WindSpeed_AGL-120m_LatLon0.15_PT084H.grib2 2026-04-17 04:19 1.2M
20260417T00Z_MSC_GDPS_WindSpeed_AGL-40m_LatLon0.15_PT084H.grib2 2026-04-17 04:19 1.2M
20260417T00Z_MSC_GDPS_WindSpeed_AGL-80m_LatLon0.15_PT084H.grib2 2026-04-17 04:19 1.2M
20260417T00Z_MSC_GDPS_WindSpeed_IsbL-0001_LatLon0.15_PT084H.grib2 2026-04-17 04:19 640K
20260417T00Z_MSC_GDPS_WindSpeed_IsbL-0005_LatLon0.15_PT084H.grib2 2026-04-17 04:19 695K
20260417T00Z_MSC_GDPS_WindSpeed_IsbL-0010_LatLon0.15_PT084H.grib2 2026-04-17 04:19 632K
20260417T00Z_MSC_GDPS_WindSpeed_IsbL-0020_LatLon0.15_PT084H.grib2 2026-04-17 04:19 861K
20260417T00Z_MSC_GDPS_WindSpeed_IsbL-0030_LatLon0.15_PT084H.grib2 2026-04-17 04:19 858K
20260417T00Z_MSC_GDPS_WindSpeed_IsbL-0050_LatLon0.15_PT084H.grib2 2026-04-17 04:19 1.0M
20260417T00Z_MSC_GDPS_WindSpeed_IsbL-0100_LatLon0.15_PT084H.grib2 2026-04-17 04:19 1.1M
20260417T00Z_MSC_GDPS_WindSpeed_IsbL-0150_LatLon0.15_PT084H.grib2 2026-04-17 04:19 1.0M
20260417T00Z_MSC_GDPS_WindSpeed_IsbL-0175_LatLon0.15_PT084H.grib2 2026-04-17 04:19 1.0M
20260417T00Z_MSC_GDPS_WindSpeed_IsbL-0200_LatLon0.15_PT084H.grib2 2026-04-17 04:19 1.1M
20260417T00Z_MSC_GDPS_WindSpeed_IsbL-0225_LatLon0.15_PT084H.grib2 2026-04-17 04:19 1.1M
20260417T00Z_MSC_GDPS_WindSpeed_IsbL-0250_LatLon0.15_PT084H.grib2 2026-04-17 04:19 1.1M
20260417T00Z_MSC_GDPS_WindSpeed_IsbL-0275_LatLon0.15_PT084H.grib2 2026-04-17 04:19 1.1M
20260417T00Z_MSC_GDPS_WindSpeed_IsbL-0300_LatLon0.15_PT084H.grib2 2026-04-17 04:19 1.1M
20260417T00Z_MSC_GDPS_WindSpeed_IsbL-0350_LatLon0.15_PT084H.grib2 2026-04-17 04:19 1.1M
20260417T00Z_MSC_GDPS_WindSpeed_IsbL-0400_LatLon0.15_PT084H.grib2 2026-04-17 04:19 1.1M
20260417T00Z_MSC_GDPS_WindSpeed_IsbL-0450_LatLon0.15_PT084H.grib2 2026-04-17 04:19 1.1M
20260417T00Z_MSC_GDPS_WindSpeed_IsbL-0500_LatLon0.15_PT084H.grib2 2026-04-17 04:19 1.1M
20260417T00Z_MSC_GDPS_WindSpeed_IsbL-0550_LatLon0.15_PT084H.grib2 2026-04-17 04:19 1.1M
20260417T00Z_MSC_GDPS_WindSpeed_IsbL-0600_LatLon0.15_PT084H.grib2 2026-04-17 04:19 1.1M
20260417T00Z_MSC_GDPS_WindSpeed_IsbL-0650_LatLon0.15_PT084H.grib2 2026-04-17 04:19 1.4M
20260417T00Z_MSC_GDPS_WindSpeed_IsbL-0700_LatLon0.15_PT084H.grib2 2026-04-17 04:19 1.5M
20260417T00Z_MSC_GDPS_WindSpeed_IsbL-0750_LatLon0.15_PT084H.grib2 2026-04-17 04:19 1.6M
20260417T00Z_MSC_GDPS_WindSpeed_IsbL-0800_LatLon0.15_PT084H.grib2 2026-04-17 04:19 1.6M
20260417T00Z_MSC_GDPS_WindSpeed_IsbL-0850_LatLon0.15_PT084H.grib2 2026-04-17 04:19 1.7M
20260417T00Z_MSC_GDPS_WindSpeed_IsbL-0875_LatLon0.15_PT084H.grib2 2026-04-17 04:19 1.8M
20260417T00Z_MSC_GDPS_WindSpeed_IsbL-0900_LatLon0.15_PT084H.grib2 2026-04-17 04:19 1.8M
20260417T00Z_MSC_GDPS_WindSpeed_IsbL-0925_LatLon0.15_PT084H.grib2 2026-04-17 04:19 1.9M
20260417T00Z_MSC_GDPS_WindSpeed_IsbL-0950_LatLon0.15_PT084H.grib2 2026-04-17 04:19 1.9M
20260417T00Z_MSC_GDPS_WindSpeed_IsbL-0970_LatLon0.15_PT084H.grib2 2026-04-17 04:19 1.9M
20260417T00Z_MSC_GDPS_WindSpeed_IsbL-0985_LatLon0.15_PT084H.grib2 2026-04-17 04:19 1.8M
20260417T00Z_MSC_GDPS_WindSpeed_IsbL-1000_LatLon0.15_PT084H.grib2 2026-04-17 04:19 1.8M
20260417T00Z_MSC_GDPS_WindSpeed_IsbL-1015_LatLon0.15_PT084H.grib2 2026-04-17 04:19 1.8M
20260417T00Z_MSC_GDPS_WindU_AGL-10m_LatLon0.15_PT084H.grib2 2026-04-17 04:19 1.6M
20260417T00Z_MSC_GDPS_WindU_AGL-120m_LatLon0.15_PT084H.grib2 2026-04-17 04:19 964K
20260417T00Z_MSC_GDPS_WindU_AGL-40m_LatLon0.15_PT084H.grib2 2026-04-17 04:19 1.2M
20260417T00Z_MSC_GDPS_WindU_AGL-80m_LatLon0.15_PT084H.grib2 2026-04-17 04:19 965K
20260417T00Z_MSC_GDPS_WindU_IsbL-0001_LatLon0.15_PT084H.grib2 2026-04-17 04:19 640K
20260417T00Z_MSC_GDPS_WindU_IsbL-0005_LatLon0.15_PT084H.grib2 2026-04-17 04:19 692K
20260417T00Z_MSC_GDPS_WindU_IsbL-0010_LatLon0.15_PT084H.grib2 2026-04-17 04:19 704K
20260417T00Z_MSC_GDPS_WindU_IsbL-0020_LatLon0.15_PT084H.grib2 2026-04-17 04:19 738K
20260417T00Z_MSC_GDPS_WindU_IsbL-0030_LatLon0.15_PT084H.grib2 2026-04-17 04:19 737K
20260417T00Z_MSC_GDPS_WindU_IsbL-0050_LatLon0.15_PT084H.grib2 2026-04-17 04:19 705K
20260417T00Z_MSC_GDPS_WindU_IsbL-0100_LatLon0.15_PT084H.grib2 2026-04-17 04:19 859K
20260417T00Z_MSC_GDPS_WindU_IsbL-0150_LatLon0.15_PT084H.grib2 2026-04-17 04:19 1.0M
20260417T00Z_MSC_GDPS_WindU_IsbL-0175_LatLon0.15_PT084H.grib2 2026-04-17 04:19 1.0M
20260417T00Z_MSC_GDPS_WindU_IsbL-0200_LatLon0.15_PT084H.grib2 2026-04-17 04:19 1.1M
20260417T00Z_MSC_GDPS_WindU_IsbL-0225_LatLon0.15_PT084H.grib2 2026-04-17 04:19 853K
20260417T00Z_MSC_GDPS_WindU_IsbL-0250_LatLon0.15_PT084H.grib2 2026-04-17 04:19 853K
20260417T00Z_MSC_GDPS_WindU_IsbL-0275_LatLon0.15_PT084H.grib2 2026-04-17 04:19 882K
20260417T00Z_MSC_GDPS_WindU_IsbL-0300_LatLon0.15_PT084H.grib2 2026-04-17 04:19 871K
20260417T00Z_MSC_GDPS_WindU_IsbL-0350_LatLon0.15_PT084H.grib2 2026-04-17 04:19 888K
20260417T00Z_MSC_GDPS_WindU_IsbL-0400_LatLon0.15_PT084H.grib2 2026-04-17 04:19 889K
20260417T00Z_MSC_GDPS_WindU_IsbL-0450_LatLon0.15_PT084H.grib2 2026-04-17 04:19 892K
20260417T00Z_MSC_GDPS_WindU_IsbL-0500_LatLon0.15_PT084H.grib2 2026-04-17 04:19 898K
20260417T00Z_MSC_GDPS_WindU_IsbL-0550_LatLon0.15_PT084H.grib2 2026-04-17 04:19 1.1M
20260417T00Z_MSC_GDPS_WindU_IsbL-0600_LatLon0.15_PT084H.grib2 2026-04-17 04:19 1.1M
20260417T00Z_MSC_GDPS_WindU_IsbL-0650_LatLon0.15_PT084H.grib2 2026-04-17 04:19 1.2M
20260417T00Z_MSC_GDPS_WindU_IsbL-0700_LatLon0.15_PT084H.grib2 2026-04-17 04:19 1.2M
20260417T00Z_MSC_GDPS_WindU_IsbL-0750_LatLon0.15_PT084H.grib2 2026-04-17 04:19 1.3M
20260417T00Z_MSC_GDPS_WindU_IsbL-0800_LatLon0.15_PT084H.grib2 2026-04-17 04:19 1.3M
20260417T00Z_MSC_GDPS_WindU_IsbL-0850_LatLon0.15_PT084H.grib2 2026-04-17 04:19 1.4M
20260417T00Z_MSC_GDPS_WindU_IsbL-0875_LatLon0.15_PT084H.grib2 2026-04-17 04:19 1.4M
20260417T00Z_MSC_GDPS_WindU_IsbL-0900_LatLon0.15_PT084H.grib2 2026-04-17 04:19 1.4M
20260417T00Z_MSC_GDPS_WindU_IsbL-0925_LatLon0.15_PT084H.grib2 2026-04-17 04:19 1.4M
20260417T00Z_MSC_GDPS_WindU_IsbL-0950_LatLon0.15_PT084H.grib2 2026-04-17 04:19 1.4M
20260417T00Z_MSC_GDPS_WindU_IsbL-0970_LatLon0.15_PT084H.grib2 2026-04-17 04:19 1.4M
20260417T00Z_MSC_GDPS_WindU_IsbL-0985_LatLon0.15_PT084H.grib2 2026-04-17 04:19 1.7M
20260417T00Z_MSC_GDPS_WindU_IsbL-1000_LatLon0.15_PT084H.grib2 2026-04-17 04:19 1.7M
20260417T00Z_MSC_GDPS_WindU_IsbL-1015_LatLon0.15_PT084H.grib2 2026-04-17 04:19 1.6M
20260417T00Z_MSC_GDPS_WindV_AGL-10m_LatLon0.15_PT084H.grib2 2026-04-17 04:19 1.6M
20260417T00Z_MSC_GDPS_WindV_AGL-120m_LatLon0.15_PT084H.grib2 2026-04-17 04:19 968K
20260417T00Z_MSC_GDPS_WindV_AGL-40m_LatLon0.15_PT084H.grib2 2026-04-17 04:19 964K
20260417T00Z_MSC_GDPS_WindV_AGL-80m_LatLon0.15_PT084H.grib2 2026-04-17 04:19 968K
20260417T00Z_MSC_GDPS_WindV_IsbL-0001_LatLon0.15_PT084H.grib2 2026-04-17 04:19 763K
20260417T00Z_MSC_GDPS_WindV_IsbL-0005_LatLon0.15_PT084H.grib2 2026-04-17 04:19 782K
20260417T00Z_MSC_GDPS_WindV_IsbL-0010_LatLon0.15_PT084H.grib2 2026-04-17 04:19 810K
20260417T00Z_MSC_GDPS_WindV_IsbL-0020_LatLon0.15_PT084H.grib2 2026-04-17 04:19 858K
20260417T00Z_MSC_GDPS_WindV_IsbL-0030_LatLon0.15_PT084H.grib2 2026-04-17 04:19 856K
20260417T00Z_MSC_GDPS_WindV_IsbL-0050_LatLon0.15_PT084H.grib2 2026-04-17 04:19 907K
20260417T00Z_MSC_GDPS_WindV_IsbL-0100_LatLon0.15_PT084H.grib2 2026-04-17 04:19 850K
20260417T00Z_MSC_GDPS_WindV_IsbL-0150_LatLon0.15_PT084H.grib2 2026-04-17 04:19 1.0M
20260417T00Z_MSC_GDPS_WindV_IsbL-0175_LatLon0.15_PT084H.grib2 2026-04-17 04:19 1.0M
20260417T00Z_MSC_GDPS_WindV_IsbL-0200_LatLon0.15_PT084H.grib2 2026-04-17 04:19 844K
20260417T00Z_MSC_GDPS_WindV_IsbL-0225_LatLon0.15_PT084H.grib2 2026-04-17 04:19 850K
20260417T00Z_MSC_GDPS_WindV_IsbL-0250_LatLon0.15_PT084H.grib2 2026-04-17 04:19 850K
20260417T00Z_MSC_GDPS_WindV_IsbL-0275_LatLon0.15_PT084H.grib2 2026-04-17 04:19 933K
20260417T00Z_MSC_GDPS_WindV_IsbL-0300_LatLon0.15_PT084H.grib2 2026-04-17 04:19 925K
20260417T00Z_MSC_GDPS_WindV_IsbL-0350_LatLon0.15_PT084H.grib2 2026-04-17 04:19 940K
20260417T00Z_MSC_GDPS_WindV_IsbL-0400_LatLon0.15_PT084H.grib2 2026-04-17 04:19 882K
20260417T00Z_MSC_GDPS_WindV_IsbL-0450_LatLon0.15_PT084H.grib2 2026-04-17 04:19 883K
20260417T00Z_MSC_GDPS_WindV_IsbL-0500_LatLon0.15_PT084H.grib2 2026-04-17 04:19 886K
20260417T00Z_MSC_GDPS_WindV_IsbL-0550_LatLon0.15_PT084H.grib2 2026-04-17 04:19 1.1M
20260417T00Z_MSC_GDPS_WindV_IsbL-0600_LatLon0.15_PT084H.grib2 2026-04-17 04:19 1.1M
20260417T00Z_MSC_GDPS_WindV_IsbL-0650_LatLon0.15_PT084H.grib2 2026-04-17 04:19 1.2M
20260417T00Z_MSC_GDPS_WindV_IsbL-0700_LatLon0.15_PT084H.grib2 2026-04-17 04:19 1.2M
20260417T00Z_MSC_GDPS_WindV_IsbL-0750_LatLon0.15_PT084H.grib2 2026-04-17 04:19 1.3M
20260417T00Z_MSC_GDPS_WindV_IsbL-0800_LatLon0.15_PT084H.grib2 2026-04-17 04:19 1.3M
20260417T00Z_MSC_GDPS_WindV_IsbL-0850_LatLon0.15_PT084H.grib2 2026-04-17 04:19 1.4M
20260417T00Z_MSC_GDPS_WindV_IsbL-0875_LatLon0.15_PT084H.grib2 2026-04-17 04:19 1.4M
20260417T00Z_MSC_GDPS_WindV_IsbL-0900_LatLon0.15_PT084H.grib2 2026-04-17 04:19 1.4M
20260417T00Z_MSC_GDPS_WindV_IsbL-0925_LatLon0.15_PT084H.grib2 2026-04-17 04:19 1.4M
20260417T00Z_MSC_GDPS_WindV_IsbL-0950_LatLon0.15_PT084H.grib2 2026-04-17 04:19 1.4M
20260417T00Z_MSC_GDPS_WindV_IsbL-0970_LatLon0.15_PT084H.grib2 2026-04-17 04:19 1.4M
20260417T00Z_MSC_GDPS_WindV_IsbL-0985_LatLon0.15_PT084H.grib2 2026-04-17 04:19 1.4M
20260417T00Z_MSC_GDPS_WindV_IsbL-1000_LatLon0.15_PT084H.grib2 2026-04-17 04:19 1.4M
20260417T00Z_MSC_GDPS_WindV_IsbL-1015_LatLon0.15_PT084H.grib2 2026-04-17 04:19 1.6M